Location: Strada George Coșbuc
(47.6577°N, 23.5639°E)
Time: 22:20:30
(UTC+03:00)

ISS - Pass Details

Date: 13 September 2017
Orbit: 401 x 407 km, 51.6° (Epoch: 25 September)

Event Time Altitude Azimuth Distance (km) Brightness Sun altitude
Exits shadow 04:54:12 39° 343° (NNW) 624 -2.9 -20.8°
Maximum altitude 04:54:26 40° 355° (N) 617 -2.8 -20.8°
Drops below altitude 10° 04:57:35 10° 67° (ENE) 1,474 0.2 -20.3°
Sets 04:59:45 0° 75° (ENE) 2,335 1.4 -20.0°
